[[{"header":{"parameterUnit":"m.s-1","parameterCategory":2,"la1":30.2991,"la2":30.254,"lo1":-89.0895,"lo2":-89.0444,"dy":0.0017,"dx":0.0017,"nx":28,"ny":28,"refTime":"2024-03-30T09:00:00:Z","depth":"0","parameterNumber":2,"parameterNumberName":"U-component_of_CURRENTS"},"data":[0,0,0,0,0,0,0,0,0,0,0,0,0,0,0,0,0,0,0,0,0,0,0,0,0,0,0,0,0,0,0,0,0,0,0,0,0,0,0,0,0,0,0,0,0,0,0,0,0,0,0,0,0,0,0,0,0,0,-0.3407,-0.3409,0,-0.3512,-0.3513,-0.3514,-0.3545,-0.3545,-0.3545,-0.3545,-0.3546,-0.3546,-0.3547,0,0,0,0,0,0,0,0,0,0,0,0,0,-0.3264,-0.3266,-0.3407,-0.3409,-0.341,-0.3512,-0.3513,-0.3514,-0.3545,-0.3545,-0.3545,-0.3545,-0.3546,-0.3546,-0.3547,0,0,0,0,0,0,0,0,0,0,0,0,0,-0.3339,-0.3267,-0.3407,-0.3442,-0.3446,-0.3512,-0.3513,-0.3514,-0.3545,-0.3545,-0.3545,-0.3545,-0.3546,-0.3546,-0.3547,-0.3551,0,0,-0.3547,-0.3547,0,0,0,0,0,0,0,0,-0.3334,-0.3343,-0.3435,-0.3439,-0.3445,-0.3519,-0.3464,-0.3523,-0.3545,-0.3503,-0.3545,-0.3544,-0.3531,-0.3532,-0.3547,-0.3551,-0.3551,-0.3547,-0.3548,-0.3548,-0.3548,0,0,0,0,0,0,0,-0.3329,-0.3339,-0.3444,-0.3437,-0.3443,-0.3463,-0.3472,-0.3475,-0.3511,-0.3506,-0.351,-0.3529,-0.3532,-0.3547,-0.3547,-0.3552,-0.3547,-0.3548,-0.3548,-0.3548,-0.3527,-0.3527,0,0,0,0,0,0,-0.3325,-0.3334,-0.3441,-0.3447,-0.3393,-0.3466,-0.3476,-0.3492,-0.3513,-0.3519,-0.3529,-0.353,-0.3547,-0.3547,-0.3547,-0.3494,-0.3548,-0.3548,-0.3548,-0.3528,-0.3527,-0.3527,0,0,0,0,0,0,-0.3321,-0.3333,-0.3436,-0.3397,-0.3412,-0.3469,-0.3486,-0.3494,-0.3507,-0.3533,-0.3535,-0.3534,-0.3547,-0.3547,-0.3541,-0.3497,-0.3548,-0.3548,-0.3529,-0.3528,-0.3527,-0.3426,0,0,0,0,0,0,-0.3316,-0.3331,-0.3322,-0.3397,-0.3415,-0.3445,-0.3487,-0.3496,-0.3522,-0.3524,-0.3537,-0.3538,-0.3547,-0.354,-0.3541,-0.3498,-0.3548,-0.353,-0.3528,-0.3527,-0.343,-0.3422,-0.3414,0,0,0,0,0,-0.3311,-0.3283,-0.3321,-0.3333,-0.3407,-0.3444,-0.3453,-0.3491,-0.3522,-0.3506,-0.3531,-0.3537,-0.3532,-0.354,-0.3541,-0.3497,-0.353,-0.3529,-0.3527,-0.3434,-0.3423,-0.3415,0,0,0,0,0,0,-0.3186,-0.3287,-0.3329,-0.3326,-0.3377,-0.3451,-0.3437,-0.3488,-0.3501,-0.3498,-0.3532,-0.3533,-0.3507,-0.3527,-0.3535,-0.3491,-0.3531,-0.353,-0.346,-0.345,-0.3442,-0.3429,-0.3548,0,0,0,0,0,-0.3168,-0.3187,-0.3279,-0.3272,-0.3296,-0.3375,-0.3394,-0.343,-0.3465,-0.3472,-0.3489,-0.3504,-0.3504,-0.3498,-0.3499,-0.3478,-0.3478,-0.3453,-0.3445,-0.3438,-0.343,-0.3393,-0.338,-0.3522,-0.3522,-0.3522,0,0,-0.3118,-0.3174,-0.3183,-0.325,-0.3291,-0.3321,-0.3382,-0.3401,-0.3415,-0.3467,-0.346,-0.3473,-0.3495,-0.3465,-0.3455,-0.3474,-0.3397,-0.3436,-0.3429,-0.3425,-0.339,-0.3376,-0.3363,-0.3521,-0.3521,-0.3521,0,0,-0.3047,-0.3079,-0.3091,-0.3134,-0.3205,-0.3253,-0.3261,-0.3335,-0.3346,-0.3361,-0.3394,-0.3382,-0.3399,-0.339,-0.3395,-0.3348,-0.3357,-0.3353,-0.3296,-0.3259,-0.3247,-0.3236,-0.3207,-0.3195,-0.3347,-0.3347,-0.3347,0,-0.2987,-0.3026,-0.3089,-0.3117,-0.3147,-0.3225,-0.3243,-0.3263,-0.332,-0.3326,-0.3338,-0.3353,-0.3357,-0.333,-0.3309,-0.3323,-0.3317,-0.3324,-0.3245,-0.3235,-0.3225,-0.3199,-0.3186,-0.3342,-0.3343,-0.3343,-0.3344,0,-0.2957,-0.2982,-0.2978,-0.3057,-0.3081,-0.3096,-0.316,-0.3169,-0.3203,-0.3237,-0.3218,-0.3225,-0.3239,-0.3226,-0.3251,-0.3188,-0.321,-0.3236,-0.3261,-0.3204,-0.3181,-0.3169,-0.3335,-0.3337,-0.3338,-0.334,0,0,-0.285,-0.2948,-0.2947,-0.2984,-0.3057,-0.3077,-0.3081,-0.3118,-0.313,-0.3136,-0.3137,-0.3109,-0.3125,-0.3132,-0.3148,-0.3106,-0.3019,-0.3137,-0.3138,-0.3095,-0.2942,-0.2868,-0.2849,-0.3032,-0.303,-0.3028,-0.2949,0,-0.2818,-0.2861,-0.2916,-0.2936,-0.2966,-0.3028,-0.3032,-0.3062,-0.3086,-0.3091,-0.3079,-0.3079,-0.3087,-0.309,-0.3044,-0.3047,-0.2986,-0.3038,-0.3018,-0.3017,-0.2945,-0.2831,-0.2717,-0.2629,-0.2938,-0.2936,-0.2935,0,-0.2783,-0.2825,-0.2849,-0.2916,-0.2931,-0.2943,-0.2977,-0.2995,-0.3013,-0.303,-0.302,-0.3036,-0.2989,-0.3003,-0.293,-0.2968,-0.2935,-0.2919,-0.2916,-0.2873,-0.292,-0.2741,-0.2597,-0.257,-0.2917,-0.2919,-0.292,0,-0.2704,-0.2771,-0.2791,-0.2814,-0.2895,-0.2899,-0.293,-0.2963,-0.2976,-0.2989,-0.3,-0.2967,-0.2955,-0.2905,-0.2878,-0.2902,-0.2796,-0.2833,-0.2723,-0.272,-0.263,-0.2621,-0.2442,-0.2739,-0.2739,-0.2739,-0.274,0,-0.2657,-0.2667,-0.2756,-0.2767,-0.2772,-0.2847,-0.2847,-0.288,-0.2919,-0.2918,-0.2957,-0.2941,-0.2927,-0.2885,-0.2851,-0.2742,-0.277,-0.2675,-0.2673,-0.2592,-0.2581,-0.2565,-0.2611,-0.2736,-0.2737,-0.2738,-0.2738,0,-0.256,-0.2627,-0.2648,-0.2722,-0.2737,-0.2735,-0.2796,-0.2804,-0.2861,-0.2862,-0.2865,-0.2901,-0.2844,-0.282,-0.2745,-0.2697,-0.256,-0.2569,-0.2477,-0.2463,-0.2322,-0.2369,-0.2221,-0.2162,-0.2418,-0.2415,-0.2413,0,-0.2514,-0.2518,-0.2583,-0.259,-0.2617,-0.264,-0.2655,-0.2742,-0.2764,-0.2825,-0.2814,-0.2792,-0.2739,-0.262,-0.2526,-0.2419,-0.2442,-0.2268,-0.2268,-0.2249,-0.2302,-0.2346,-0.2311,-0.2118,-0.2114,-0.211,-0.2107,0,-0.2403,-0.2425,-0.2441,-0.2464,-0.248,-0.2499,-0.2538,-0.2548,-0.2645,-0.2658,-0.2649,-0.2613,-0.2529,-0.2365,-0.2256,-0.219,-0.2206,-0.2187,-0.2179,-0.2036,-0.2059,-0.2024,-0.2263,-0.2074,-0.2078,-0.208,-0.2082,-0.2083,-0.2288,-0.2274,-0.2299,-0.2299,-0.2325,-0.2321,-0.2285,-0.2355,-0.235,-0.2346,-0.2413,-0.2328,-0.2247,-0.2061,-0.1996,-0.185,-0.1944,-0.1798,-0.1853,-0.1897,-0.1826,-0.1987,-0.1796,-0.1797,-0.1799,-0.18,-0.1801,0,-0.2136,-0.2135,-0.2136,-0.2127,-0.2087,-0.2158,-0.2172,-0.2122,-0.2068,-0.2109,-0.2068,-0.1962,-0.1811,-0.177,-0.1631,-0.1547,-0.153,-0.1528,-0.1564,-0.1541,-0.1667,-0.1639,-0.1389,-0.1389,-0.1389,-0.1389,-0.1389,-0.1389,-0.2053,-0.1995,-0.1999,-0.1874,-0.187,-0.1774,-0.1744,-0.171,-0.1709,-0.1607,-0.1582,-0.1568,-0.1562,-0.1628,-0.1497,-0.1421,-0.141,-0.1359,-0.1412,-0.152,-0.1551,-0.158,-0.1558,-0.1295,-0.1295,-0.1209,-0.1209,-0.1209]},{"header":{"parameterUnit":"m.s-1","parameterCategory":2,"la1":30.2991,"la2":30.254,"lo1":-89.0895,"lo2":-89.0444,"dy":0.0017,"dx":0.0017,"nx":28,"ny":28,"refTime":"2024-03-30T09:00:00:Z","depth":"0","parameterNumber":3,"parameterNumberName":"V-component_of_CURRENTS"},"data":[0,0,0,0,0,0,0,0,0,0,0,0,0,0,0,0,0,0,0,0,0,0,0,0,0,0,0,0,0,0,0,0,0,0,0,0,0,0,0,0,0,0,0,0,0,0,0,0,0,0,0,0,0,0,0,0,0,0,-0.0108,-0.0107,0,0.0018,0.002,0.0021,0.012,0.0121,0.0122,0.0122,0.0287,0.029,0.0294,0,0,0,0,0,0,0,0,0,0,0,0,0,-0.0188,-0.0188,-0.0108,-0.0106,-0.0105,0.0018,0.002,0.0021,0.0119,0.0121,0.0122,0.0123,0.0286,0.029,0.0294,0,0,0,0,0,0,0,0,0,0,0,0,0,-0.0117,-0.0187,-0.0108,-0.0041,-0.0034,0.0018,0.002,0.0022,0.0119,0.0121,0.0122,0.0123,0.0285,0.029,0.0295,0.0299,0,0,0.0311,0.0313,0,0,0,0,0,0,0,0,-0.0121,-0.0114,-0.0053,-0.0046,-0.0038,0.0054,0.0052,0.0116,0.0119,0.0061,0.0122,0.0124,0.0212,0.0223,0.0243,0.0307,0.0314,0.0311,0.0315,0.0317,0.0318,0,0,0,0,0,0,0,-0.0126,-0.0118,-0.0058,-0.0051,-0.0042,0.0009,0.0019,0.0065,0.0128,0.0066,0.0074,0.0087,0.0216,0.0238,0.0248,0.0316,0.0311,0.0316,0.0319,0.0321,0.0438,0.0438,0,0,0,0,0,0,-0.0148,-0.0124,-0.0062,-0.0054,-0.0077,0.0008,0.0021,0.0024,0.0127,0.0144,0.0086,0.0091,0.0228,0.0242,0.0254,0.0272,0.0317,0.0322,0.0325,0.0438,0.0438,0.0438,0,0,0,0,0,0,-0.015,-0.0144,-0.0067,-0.0085,-0.0072,0.0008,0.0011,0.0025,0.0047,0.0141,0.0159,0.0092,0.023,0.0247,0.0289,0.0279,0.0324,0.0329,0.0438,0.0438,0.0438,0.0304,0,0,0,0,0,0,-0.0153,-0.0146,-0.0158,-0.0087,-0.0072,-0.0054,0.001,0.0027,0.0053,0.0061,0.0152,0.0169,0.0232,0.028,0.0294,0.0287,0.0333,0.0438,0.0438,0.0438,0.0309,0.03,0.0292,0,0,0,0,0,-0.0157,-0.0183,-0.016,-0.0152,-0.0089,-0.0055,-0.0043,0.002,0.0051,0.0047,0.0114,0.0166,0.0291,0.0284,0.03,0.0295,0.0438,0.0438,0.0438,0.0313,0.0302,0.0292,0,0,0,0,0,0,-0.0227,-0.0173,-0.0146,-0.0155,-0.0115,-0.0039,-0.0038,0.0006,0.0055,0.0063,0.0156,0.0176,0.0213,0.0271,0.0262,0.0332,0.0377,0.038,0.0276,0.0267,0.0258,0.025,0.0337,0,0,0,0,0,-0.025,-0.0252,-0.0192,-0.02,-0.0186,-0.0116,-0.0095,-0.0055,0.0002,0.0025,0.0091,0.0165,0.0225,0.0256,0.0315,0.0342,0.0394,0.0355,0.0347,0.0339,0.0345,0.0391,0.0386,0.0437,0.0437,0.0437,0,0,-0.0276,-0.025,-0.0249,-0.0215,-0.0178,-0.0165,-0.01,-0.0082,-0.0064,0.0034,0.0069,0.0131,0.0225,0.0261,0.0284,0.0308,0.0351,0.0339,0.0331,0.0343,0.039,0.0385,0.038,0.0437,0.0437,0.0437,0,0,-0.033,-0.0313,-0.0328,-0.0302,-0.0261,-0.0217,-0.0218,-0.0152,-0.0119,-0.0083,-0.0002,0.0048,0.0136,0.0201,0.0247,0.0227,0.0302,0.0251,0.0203,0.0245,0.0241,0.0238,0.0286,0.0288,0.0249,0.0249,0.0249,0,-0.0363,-0.0373,-0.0329,-0.0334,-0.0317,-0.0246,-0.0252,-0.0212,-0.014,-0.0114,-0.0089,0.0043,0.0111,0.0174,0.0174,0.0206,0.0247,0.0226,0.0231,0.0229,0.0228,0.0279,0.0283,0.0243,0.0243,0.0244,0.0245,0,-0.0415,-0.0424,-0.0435,-0.0413,-0.0393,-0.0393,-0.0329,-0.0308,-0.0261,-0.0206,-0.0148,-0.0061,0.0024,0.0049,0.0109,0.0144,0.0179,0.0206,0.0246,0.0214,0.0271,0.0277,0.0233,0.0236,0.0238,0.0239,0,0,-0.048,-0.0473,-0.0475,-0.0481,-0.0435,-0.0425,-0.0404,-0.0358,-0.0339,-0.0274,-0.024,-0.0144,-0.0092,-0.0035,0.0039,0.0081,0.0102,0.0136,0.0141,0.0166,0.0201,0.0265,0.0279,0.0124,0.0125,0.0125,0.0237,0,-0.0531,-0.0571,-0.054,-0.0564,-0.0577,-0.0512,-0.0495,-0.0444,-0.0388,-0.0341,-0.0248,-0.0188,-0.0124,-0.0089,-0.004,0.0078,0.0117,0.007,0.0246,0.0252,0.0297,0.0288,0.0331,0.0438,0.0244,0.0246,0.0246,0,-0.0584,-0.0605,-0.0646,-0.0642,-0.0639,-0.0635,-0.0595,-0.057,-0.0483,-0.0439,-0.0367,-0.0281,-0.019,-0.0145,0.0018,-0.0015,0.0081,0.0162,0.0168,0.0284,0.0329,0.0445,0.0459,0.0603,0.0258,0.0257,0.0256,0,-0.0654,-0.0674,-0.0713,-0.0712,-0.0693,-0.0692,-0.0673,-0.0603,-0.0582,-0.0497,-0.047,-0.0349,-0.0278,-0.0157,0.0027,0.002,0.0204,0.0215,0.036,0.0366,0.0469,0.0483,0.0632,0.0311,0.0311,0.031,0.031,0,-0.0722,-0.075,-0.0753,-0.0776,-0.0812,-0.0765,-0.0777,-0.0736,-0.0673,-0.0642,-0.0529,-0.0467,-0.0278,-0.0138,0.0006,0.0217,0.019,0.036,0.0401,0.0425,0.0433,0.0619,0.0669,0.0315,0.0314,0.0313,0.0312,0,-0.0792,-0.0794,-0.0841,-0.0846,-0.0851,-0.0875,-0.0858,-0.0859,-0.079,-0.0745,-0.072,-0.0547,-0.0347,-0.0152,0.0077,0.0203,0.0489,0.0462,0.0484,0.0526,0.0786,0.0826,0.1025,0.1124,0.0633,0.0635,0.0637,0,-0.0833,-0.0866,-0.0906,-0.094,-0.0947,-0.0972,-0.0986,-0.0929,-0.0914,-0.078,-0.0758,-0.0556,-0.0376,-0.0017,0.0243,0.0511,0.0607,0.0685,0.0679,0.0818,0.0893,0.091,0.0979,0.0762,0.0764,0.0767,0.0769,0,-0.0904,-0.0915,-0.0955,-0.1032,-0.1066,-0.1099,-0.1103,-0.1103,-0.101,-0.0928,-0.0761,-0.06,-0.0231,0.0129,0.0467,0.0615,0.08,0.074,0.0882,0.101,0.1042,0.1151,0.0669,0.0789,0.0787,0.0785,0.0784,0.0783,-0.0946,-0.0998,-0.105,-0.1116,-0.1161,-0.1193,-0.1193,-0.1141,-0.1072,-0.0858,-0.0751,-0.041,0.0026,0.0537,0.071,0.1063,0.1004,0.1152,0.1191,0.1196,0.1293,0.086,0.1024,0.1024,0.1023,0.1023,0.1022,0,-0.0997,-0.1052,-0.1128,-0.1196,-0.1245,-0.1249,-0.1242,-0.1164,-0.1027,-0.0758,-0.0529,0.0026,0.0459,0.0858,0.1312,0.1497,0.1533,0.1571,0.1604,0.1656,0.1282,0.129,0.1523,0.1523,0.1522,0.1522,0.1522,0.1522,-0.1024,-0.1108,-0.115,-0.1239,-0.1281,-0.1287,-0.1264,-0.1072,-0.0851,-0.0352,0.0051,0.0337,0.0812,0.1435,0.1841,0.1872,0.2034,0.2007,0.2099,0.1833,0.1797,0.1761,0.1783,0.2115,0.2116,0.2467,0.247,0.2473]}],[{"header":{"parameterUnit":"m.s-1","parameterCategory":2,"la1":30.2991,"la2":30.254,"lo1":-89.0895,"lo2":-89.0444,"dy":0.0017,"dx":0.0017,"nx":28,"ny":28,"refTime":"2024-03-30T09:00:00:Z","depth":"2","parameterNumber":2,"parameterNumberName":"U-component_of_CURRENTS"},"data":[0,0,0,0,0,0,0,0,0,0,0,0,0,0,0,0,0,0,0,0,0,0,0,0,0,0,0,0,0,0,0,0,0,0,0,0,0,0,0,0,0,0,0,0,0,0,0,0,0,0,0,0,0,0,0,0,0,0,-0.2637,-0.2638,0,-0.266,-0.266,-0.266,-0.2653,-0.2652,-0.2652,-0.2651,-0.2702,-0.2704,-0.2706,0,0,0,0,0,0,0,0,0,0,0,0,0,-0.256,-0.2562,-0.2637,-0.2638,-0.2638,-0.266,-0.266,-0.266,-0.2653,-0.2652,-0.2652,-0.2651,-0.2702,-0.2704,-0.2706,0,0,0,0,0,0,0,0,0,0,0,0,0,-0.2588,-0.2562,-0.2637,-0.2638,-0.2638,-0.266,-0.266,-0.266,-0.2653,-0.2652,-0.2652,-0.2651,-0.2701,-0.2703,-0.2706,-0.2732,0,0,-0.2714,-0.2715,0,0,0,0,0,0,0,0,-0.2586,-0.2591,-0.2637,-0.2638,-0.2639,-0.2654,-0.2651,-0.2686,-0.2653,-0.2646,-0.2651,-0.2651,-0.269,-0.2694,-0.2696,-0.2734,-0.2737,-0.2714,-0.2715,-0.2716,-0.2717,0,0,0,0,0,0,0,-0.2584,-0.2589,-0.2645,-0.2638,-0.2639,-0.2628,-0.2631,-0.2658,-0.267,-0.2646,-0.2646,-0.2651,-0.269,-0.2694,-0.2698,-0.2737,-0.2714,-0.2716,-0.2718,-0.2719,-0.2781,-0.2781,0,0,0,0,0,0,-0.2587,-0.2588,-0.2644,-0.2645,-0.2612,-0.263,-0.2634,-0.2648,-0.2669,-0.2672,-0.2652,-0.2651,-0.269,-0.2695,-0.2699,-0.2726,-0.2716,-0.2719,-0.272,-0.278,-0.2781,-0.2781,0,0,0,0,0,0,-0.2586,-0.2592,-0.2643,-0.2617,-0.2623,-0.2632,-0.2648,-0.2649,-0.2664,-0.2673,-0.2676,-0.2667,-0.269,-0.2696,-0.2727,-0.2728,-0.272,-0.2722,-0.278,-0.278,-0.2781,-0.2782,0,0,0,0,0,0,-0.2583,-0.2592,-0.2602,-0.2618,-0.2625,-0.2665,-0.2649,-0.265,-0.2668,-0.2667,-0.2688,-0.2691,-0.269,-0.2723,-0.273,-0.2731,-0.2724,-0.278,-0.278,-0.2781,-0.2782,-0.2782,-0.2783,0,0,0,0,0,-0.2581,-0.2593,-0.2603,-0.261,-0.264,-0.2666,-0.2669,-0.2672,-0.2669,-0.2682,-0.269,-0.2691,-0.2728,-0.2726,-0.2733,-0.2735,-0.278,-0.278,-0.2781,-0.2782,-0.2782,-0.2783,0,0,0,0,0,0,-0.256,-0.2595,-0.2605,-0.2627,-0.2652,-0.2666,-0.2671,-0.2683,-0.27,-0.2697,-0.2705,-0.271,-0.2733,-0.2739,-0.2736,-0.2752,-0.275,-0.2752,-0.2748,-0.2749,-0.2749,-0.2727,-0.2726,0,0,0,0,0,-0.2564,-0.258,-0.2617,-0.263,-0.2646,-0.2664,-0.2675,-0.2684,-0.2701,-0.2707,-0.2722,-0.273,-0.2738,-0.2749,-0.276,-0.2783,-0.2762,-0.2784,-0.2785,-0.2785,-0.2771,-0.2743,-0.274,-0.2782,-0.2782,-0.2782,0,0,-0.2553,-0.2577,-0.2583,-0.2627,-0.264,-0.2662,-0.2669,-0.269,-0.2701,-0.2712,-0.2729,-0.2741,-0.2746,-0.2759,-0.2769,-0.2766,-0.2763,-0.2785,-0.2785,-0.2771,-0.2743,-0.2739,-0.2735,-0.2782,-0.2782,-0.2782,0,0,-0.2538,-0.257,-0.2579,-0.2608,-0.2643,-0.2661,-0.2675,-0.2706,-0.2713,-0.2743,-0.2739,-0.2748,-0.2781,-0.2767,-0.2767,-0.278,-0.2768,-0.2793,-0.2777,-0.2752,-0.2748,-0.2744,-0.2714,-0.2708,-0.2791,-0.2791,-0.2791,0,-0.252,-0.2548,-0.2584,-0.2606,-0.2624,-0.2664,-0.2681,-0.2698,-0.2734,-0.2738,-0.2748,-0.2765,-0.2773,-0.2765,-0.2763,-0.2779,-0.2765,-0.2776,-0.2751,-0.2746,-0.2742,-0.2713,-0.2706,-0.2791,-0.2791,-0.2791,-0.2791,0,-0.2516,-0.2544,-0.2552,-0.2593,-0.2621,-0.2643,-0.2681,-0.2706,-0.2726,-0.2738,-0.275,-0.2758,-0.2761,-0.2767,-0.277,-0.2748,-0.2748,-0.2756,-0.2747,-0.2738,-0.2708,-0.27,-0.2791,-0.2791,-0.2791,-0.2791,0,0,-0.245,-0.2532,-0.2532,-0.2557,-0.2619,-0.2638,-0.2665,-0.2695,-0.2705,-0.2731,-0.2733,-0.2736,-0.2741,-0.274,-0.2745,-0.2722,-0.2683,-0.2728,-0.2727,-0.2693,-0.2625,-0.2546,-0.253,-0.2693,-0.2692,-0.2691,-0.2616,0,-0.2429,-0.247,-0.2516,-0.2547,-0.2574,-0.2626,-0.2649,-0.2681,-0.2707,-0.2723,-0.272,-0.2728,-0.2731,-0.2736,-0.2712,-0.2701,-0.2663,-0.2702,-0.2643,-0.264,-0.2566,-0.2518,-0.2352,-0.2265,-0.2609,-0.2607,-0.2606,0,-0.24,-0.2439,-0.247,-0.2539,-0.2553,-0.2575,-0.2619,-0.2647,-0.2679,-0.2699,-0.2703,-0.2715,-0.2693,-0.2698,-0.2643,-0.2673,-0.2638,-0.262,-0.2617,-0.2532,-0.2545,-0.2329,-0.2238,-0.2593,-0.2594,-0.2595,-0.2596,0,-0.2331,-0.2399,-0.2424,-0.2448,-0.2532,-0.2545,-0.2582,-0.2628,-0.2649,-0.2678,-0.2694,-0.2682,-0.2677,-0.2637,-0.2606,-0.2625,-0.2539,-0.2562,-0.2449,-0.2444,-0.2281,-0.2263,-0.2492,-0.2492,-0.2493,-0.2493,-0.2493,0,-0.229,-0.2305,-0.2395,-0.2409,-0.243,-0.2504,-0.2522,-0.2562,-0.2613,-0.2624,-0.2669,-0.2664,-0.2661,-0.2626,-0.2591,-0.2487,-0.2521,-0.2418,-0.2407,-0.2278,-0.2261,-0.2535,-0.2541,-0.249,-0.2491,-0.2491,-0.2492,0,-0.2203,-0.2268,-0.2296,-0.2379,-0.2399,-0.2409,-0.2483,-0.2501,-0.2566,-0.2582,-0.2591,-0.2636,-0.2586,-0.2566,-0.2501,-0.2452,-0.2375,-0.2327,-0.2175,-0.2145,-0.2302,-0.2309,-0.2185,-0.2181,-0.2178,-0.2175,-0.2173,0,-0.2162,-0.2171,-0.2247,-0.2261,-0.2293,-0.2331,-0.2358,-0.245,-0.2478,-0.2549,-0.2546,-0.2534,-0.2483,-0.2373,-0.2281,-0.2174,-0.2269,-0.1976,-0.1968,-0.2262,-0.2265,-0.2277,-0.2288,-0.1759,-0.1754,-0.1749,-0.1746,0,-0.2068,-0.2095,-0.2119,-0.2155,-0.2183,-0.2213,-0.2263,-0.2278,-0.238,-0.2396,-0.2391,-0.2356,-0.2274,-0.2084,-0.1977,-0.1906,-0.1984,-0.1882,-0.2202,-0.1871,-0.1857,-0.1861,-0.1887,-0.1706,-0.171,-0.1713,-0.1715,-0.1717,-0.1973,-0.1968,-0.2003,-0.2017,-0.2054,-0.206,-0.2027,-0.2097,-0.2097,-0.2078,-0.2153,-0.2035,-0.2022,-0.1742,-0.1641,-0.1565,-0.1704,-0.1637,-0.1652,-0.1672,-0.1644,-0.1625,-0.1426,-0.1428,-0.143,-0.1432,-0.1434,0,-0.1845,-0.1854,-0.1866,-0.1873,-0.1849,-0.1917,-0.1932,-0.1867,-0.1806,-0.1819,-0.1766,-0.1549,-0.143,-0.142,-0.1231,-0.1198,-0.1206,-0.116,-0.1174,-0.1213,-0.1248,-0.12,-0.0864,-0.0862,-0.086,-0.0859,0,0,-0.1777,-0.1736,-0.1742,-0.1649,-0.1655,-0.156,-0.1525,-0.1451,-0.1413,-0.1288,-0.1225,-0.131,-0.1352,-0.1095,-0.1046,-0.0915,-0.1051,-0.0869,-0.1325,-0.1378,-0.1411,-0.152,-0.1491,0,0,0,0,0]},{"header":{"parameterUnit":"m.s-1","parameterCategory":2,"la1":30.2991,"la2":30.254,"lo1":-89.0895,"lo2":-89.0444,"dy":0.0017,"dx":0.0017,"nx":28,"ny":28,"refTime":"2024-03-30T09:00:00:Z","depth":"2","parameterNumber":3,"parameterNumberName":"V-component_of_CURRENTS"},"data":[0,0,0,0,0,0,0,0,0,0,0,0,0,0,0,0,0,0,0,0,0,0,0,0,0,0,0,0,0,0,0,0,0,0,0,0,0,0,0,0,0,0,0,0,0,0,0,0,0,0,0,0,0,0,0,0,0,0,-0.0332,-0.0331,0,-0.0272,-0.0272,-0.0271,-0.0219,-0.0218,-0.0218,-0.0217,-0.0089,-0.0086,-0.0083,0,0,0,0,0,0,0,0,0,0,0,0,0,-0.0363,-0.0363,-0.0332,-0.0331,-0.033,-0.0273,-0.0272,-0.0271,-0.0219,-0.0218,-0.0218,-0.0217,-0.0089,-0.0086,-0.0083,0,0,0,0,0,0,0,0,0,0,0,0,0,-0.0331,-0.0363,-0.0332,-0.0297,-0.0294,-0.0273,-0.0272,-0.0271,-0.0219,-0.0218,-0.0217,-0.0217,-0.0091,-0.0086,-0.0082,-0.0074,0,0,-0.0069,-0.0067,0,0,0,0,0,0,0,0,-0.0333,-0.033,-0.0303,-0.03,-0.0295,-0.0252,-0.0235,-0.0202,-0.022,-0.0248,-0.0217,-0.0216,-0.0137,-0.0129,-0.0121,-0.0068,-0.0063,-0.0069,-0.0066,-0.0064,-0.0063,0,0,0,0,0,0,0,-0.0335,-0.0332,-0.0308,-0.0302,-0.0298,-0.0272,-0.0267,-0.0229,-0.0197,-0.0245,-0.0241,-0.0235,-0.0135,-0.0126,-0.0118,-0.0061,-0.0069,-0.0065,-0.0062,-0.0061,0.0027,0.0026,0,0,0,0,0,0,-0.0346,-0.0335,-0.031,-0.0307,-0.0312,-0.0272,-0.0266,-0.0267,-0.0199,-0.0188,-0.0235,-0.0232,-0.0133,-0.0123,-0.0113,-0.0078,-0.0064,-0.006,-0.0058,0.0027,0.0027,0.0026,0,0,0,0,0,0,-0.0347,-0.0344,-0.0313,-0.0319,-0.0313,-0.0273,-0.0274,-0.0266,-0.0253,-0.0192,-0.018,-0.0229,-0.0132,-0.0119,-0.008,-0.0073,-0.0058,-0.0055,0.0027,0.0027,0.0026,-0.0021,0,0,0,0,0,0,-0.0348,-0.0345,-0.035,-0.032,-0.0313,-0.0303,-0.0274,-0.0266,-0.0251,-0.0246,-0.0183,-0.0171,-0.0131,-0.0087,-0.0076,-0.0067,-0.0051,0.0027,0.0027,0.0027,-0.0019,-0.0023,-0.0026,0,0,0,0,0,-0.0349,-0.0362,-0.0351,-0.0348,-0.0321,-0.0303,-0.0298,-0.0266,-0.0251,-0.025,-0.0208,-0.0172,-0.0082,-0.0084,-0.0071,-0.006,0.0028,0.0027,0.0027,-0.0017,-0.0022,-0.0026,0,0,0,0,0,0,-0.0378,-0.0357,-0.0344,-0.035,-0.0329,-0.0294,-0.0292,-0.0271,-0.0239,-0.0233,-0.0176,-0.016,-0.0124,-0.0091,-0.0095,-0.0038,-0.0021,-0.0019,-0.0059,-0.0063,-0.0066,-0.0075,-0.0048,0,0,0,0,0,-0.0388,-0.0394,-0.0364,-0.037,-0.0361,-0.0328,-0.0317,-0.0297,-0.0265,-0.025,-0.0205,-0.0159,-0.0118,-0.009,-0.0053,-0.0022,0.0017,-0.0007,-0.001,-0.0014,-0.0013,0.0045,0.0047,0.0025,0.0025,0.0025,0,0,-0.0401,-0.0391,-0.0393,-0.0376,-0.0358,-0.0354,-0.032,-0.0309,-0.0299,-0.024,-0.0214,-0.0171,-0.0115,-0.008,-0.006,-0.0048,0.0012,-0.0014,-0.0017,-0.0015,0.0045,0.0047,0.0049,0.0024,0.0024,0.0024,0,0,-0.0434,-0.042,-0.0437,-0.0422,-0.0401,-0.0377,-0.0376,-0.0342,-0.032,-0.0294,-0.0247,-0.02,-0.0145,-0.0096,-0.0065,-0.0066,-0.0013,-0.0056,-0.0072,-0.0017,-0.0014,-0.0011,0.0036,0.0043,-0.0053,-0.0053,-0.0053,0,-0.0452,-0.0466,-0.0437,-0.0446,-0.0437,-0.0391,-0.04,-0.0372,-0.0329,-0.0307,-0.0293,-0.0199,-0.015,-0.0093,-0.0092,-0.0071,-0.0038,-0.006,-0.0021,-0.0017,-0.0013,0.0034,0.0043,-0.0055,-0.0055,-0.0055,-0.0055,0,-0.0494,-0.0502,-0.051,-0.0505,-0.0489,-0.0491,-0.0448,-0.0427,-0.0394,-0.0357,-0.0302,-0.0236,-0.0177,-0.0153,-0.012,-0.0068,-0.0052,-0.0036,-0.001,-0.0014,0.0037,0.0046,-0.0059,-0.0058,-0.0057,-0.0057,0,0,-0.0543,-0.0543,-0.0545,-0.0552,-0.0521,-0.0514,-0.0493,-0.0456,-0.0438,-0.0382,-0.0349,-0.027,-0.0227,-0.019,-0.0136,-0.0082,-0.0025,-0.0052,-0.0048,-0.0006,0.0093,0.0127,0.0141,-0.0002,-0.0001,0.0001,0.0116,0,-0.0587,-0.0625,-0.0602,-0.0621,-0.0633,-0.058,-0.0563,-0.0519,-0.047,-0.0423,-0.0337,-0.0288,-0.0242,-0.0213,-0.0151,-0.0056,-0.0,-0.0058,0.0091,0.0096,0.0126,0.0154,0.0128,0.0231,0.0126,0.0128,0.0129,0,-0.0635,-0.0654,-0.069,-0.0682,-0.0679,-0.0677,-0.0635,-0.0613,-0.0529,-0.0488,-0.0416,-0.0346,-0.0251,-0.0219,-0.0057,-0.0098,-0.0009,0.0064,0.0071,0.0127,0.0149,0.022,0.0254,0.0147,0.0145,0.0144,0.0143,0,-0.0692,-0.071,-0.0742,-0.0741,-0.0724,-0.0721,-0.0704,-0.0637,-0.0614,-0.0527,-0.0496,-0.0377,-0.031,-0.0189,-0.0034,-0.0045,0.0143,0.0149,0.0265,0.0268,0.0289,0.0292,0.0263,0.0262,0.0262,0.0262,0.0261,0,-0.075,-0.0772,-0.0775,-0.0795,-0.0821,-0.0781,-0.0783,-0.0744,-0.068,-0.0645,-0.0538,-0.0477,-0.0299,-0.0167,-0.004,0.0149,0.0143,0.0273,0.0307,0.0271,0.0271,0.0229,0.0224,0.0266,0.0265,0.0264,0.0264,0,-0.0808,-0.0811,-0.0849,-0.0851,-0.0854,-0.0872,-0.0853,-0.0847,-0.0778,-0.0728,-0.0702,-0.0539,-0.0358,-0.0178,0.004,0.0148,0.0316,0.0382,0.0326,0.0351,0.0402,0.0393,0.0522,0.0524,0.0526,0.0528,0.0529,0,-0.0843,-0.087,-0.0903,-0.0933,-0.094,-0.0957,-0.0966,-0.0909,-0.0889,-0.0759,-0.0734,-0.0548,-0.0391,-0.0064,0.0161,0.0399,0.0386,0.0499,0.0481,0.0412,0.0432,0.042,0.0408,0.0489,0.049,0.0491,0.0492,0,-0.0903,-0.0912,-0.0945,-0.1013,-0.1042,-0.1065,-0.1064,-0.106,-0.0969,-0.0889,-0.074,-0.0602,-0.0278,0.0005,0.0303,0.0426,0.0457,0.0523,0.0486,0.0422,0.039,0.0406,0.0395,0.0498,0.0498,0.0497,0.0497,0.0497,-0.0938,-0.0982,-0.1028,-0.1085,-0.1124,-0.1151,-0.1153,-0.1109,-0.1043,-0.0883,-0.0751,-0.0502,-0.0248,0.0202,0.0402,0.0572,0.0564,0.06,0.0594,0.0588,0.0559,0.0531,0.066,0.0661,0.0661,0.0661,0.0661,0,-0.098,-0.1028,-0.1095,-0.1157,-0.1201,-0.1203,-0.1196,-0.1154,-0.1049,-0.0872,-0.0677,-0.0369,-0.004,0.0206,0.05,0.0673,0.064,0.0679,0.0607,0.06,0.0593,0.0561,0.0665,0.0666,0.0666,0.0667,0,0,-0.1005,-0.1078,-0.1115,-0.1199,-0.1239,-0.1258,-0.1243,-0.1147,-0.1013,-0.081,-0.0607,-0.0333,-0.0028,0.0185,0.0397,0.0542,0.0515,0.0541,0.0519,0.04,0.0392,0.0531,0.0471,0,0,0,0,0]}],[{"header":{"parameterUnit":"m.s-1","parameterCategory":2,"la1":30.2991,"la2":30.254,"lo1":-89.0895,"lo2":-89.0444,"dy":0.0017,"dx":0.0017,"nx":28,"ny":28,"refTime":"2024-03-30T09:00:00:Z","depth":"4","parameterNumber":2,"parameterNumberName":"U-component_of_CURRENTS"},"data":[0,0,0,0,0,0,0,0,0,0,0,0,0,0,0,0,0,0,0,0,0,0,0,0,0,0,0,0,0,0,0,0,0,0,0,0,0,0,0,0,0,0,0,0,0,0,0,0,0,0,0,0,0,0,0,0,0,0,-0.1725,-0.1726,0,-0.1792,-0.1793,-0.1794,-0.1823,-0.1822,-0.1822,-0.1822,-0.1909,-0.1911,-0.1913,0,0,0,0,0,0,0,0,0,0,0,0,0,-0.164,-0.1641,-0.1725,-0.1726,-0.1726,-0.1792,-0.1793,-0.1794,-0.1823,-0.1822,-0.1822,-0.1822,-0.1908,-0.1911,-0.1914,0,0,0,0,0,0,0,0,0,0,0,0,0,-0.1689,-0.1642,-0.1725,-0.1748,-0.1751,-0.1792,-0.1793,-0.1794,-0.1823,-0.1822,-0.1822,-0.1822,-0.1907,-0.191,-0.1914,-0.1942,0,0,-0.1925,-0.1927,0,0,0,0,0,0,0,0,-0.1687,-0.1693,-0.1744,-0.1747,-0.175,-0.1798,-0.1795,-0.1844,-0.1823,-0.1796,-0.1822,-0.1822,-0.1873,-0.188,-0.1894,-0.1946,-0.195,-0.1926,-0.1928,-0.1929,-0.1931,0,0,0,0,0,0,0,-0.1683,-0.169,-0.1752,-0.1745,-0.1748,-0.1761,-0.1768,-0.1804,-0.1836,-0.1798,-0.1801,-0.1807,-0.1875,-0.189,-0.1896,-0.1951,-0.1926,-0.1929,-0.1931,-0.1933,-0.2054,-0.2055,0,0,0,0,0,0,-0.1673,-0.1687,-0.175,-0.1754,-0.1716,-0.1763,-0.1771,-0.1783,-0.1836,-0.1843,-0.1807,-0.1808,-0.1884,-0.1891,-0.1899,-0.1979,-0.1929,-0.1933,-0.1935,-0.2053,-0.2054,-0.2055,0,0,0,0,0,0,-0.1671,-0.1678,-0.1747,-0.1721,-0.173,-0.1765,-0.1779,-0.1785,-0.183,-0.1842,-0.1849,-0.1849,-0.1884,-0.1894,-0.1949,-0.1981,-0.1935,-0.1938,-0.2052,-0.2053,-0.2055,-0.2111,0,0,0,0,0,0,-0.1668,-0.1677,-0.1705,-0.172,-0.1732,-0.1791,-0.1779,-0.1786,-0.1832,-0.1835,-0.188,-0.1886,-0.1884,-0.1944,-0.1953,-0.1985,-0.1941,-0.205,-0.2052,-0.2054,-0.2108,-0.2114,-0.2119,0,0,0,0,0,-0.1665,-0.1697,-0.1707,-0.1715,-0.1762,-0.1792,-0.18,-0.1823,-0.1834,-0.1862,-0.1887,-0.1886,-0.1961,-0.1948,-0.1959,-0.1992,-0.205,-0.2052,-0.2054,-0.2105,-0.2113,-0.2119,0,0,0,0,0,0,-0.1683,-0.1704,-0.1714,-0.1754,-0.1781,-0.1797,-0.1831,-0.1846,-0.189,-0.1902,-0.191,-0.1919,-0.1972,-0.1978,-0.1963,-0.2029,-0.2001,-0.2006,-0.2036,-0.2044,-0.205,-0.2032,-0.1944,0,0,0,0,0,-0.1697,-0.1723,-0.1745,-0.178,-0.1797,-0.1823,-0.1847,-0.1863,-0.1891,-0.1912,-0.1941,-0.1967,-0.1986,-0.2013,-0.203,-0.2085,-0.2059,-0.2108,-0.2114,-0.2119,-0.211,-0.2101,-0.2105,-0.2063,-0.2063,-0.2063,0,0,-0.1712,-0.1729,-0.1745,-0.1785,-0.1809,-0.1837,-0.1838,-0.1884,-0.1912,-0.1916,-0.198,-0.1996,-0.2003,-0.2048,-0.2073,-0.2063,-0.2118,-0.2122,-0.2126,-0.2114,-0.2104,-0.2108,-0.2111,-0.2064,-0.2064,-0.2064,0,0,-0.1731,-0.1773,-0.1791,-0.182,-0.1861,-0.1877,-0.1898,-0.1938,-0.1966,-0.2024,-0.202,-0.2053,-0.2109,-0.2106,-0.2112,-0.2165,-0.2145,-0.2182,-0.221,-0.2202,-0.2205,-0.2208,-0.2181,-0.218,-0.2191,-0.2191,-0.2191,0,-0.1746,-0.1775,-0.1805,-0.1831,-0.1858,-0.1897,-0.1925,-0.1961,-0.2016,-0.2037,-0.2053,-0.211,-0.2126,-0.215,-0.2165,-0.2179,-0.2166,-0.2185,-0.2209,-0.2211,-0.2213,-0.2184,-0.2183,-0.2194,-0.2194,-0.2194,-0.2193,0,-0.1761,-0.1804,-0.1824,-0.1862,-0.1901,-0.1938,-0.198,-0.203,-0.2074,-0.2096,-0.215,-0.2171,-0.2195,-0.2213,-0.2211,-0.2233,-0.2217,-0.2213,-0.219,-0.222,-0.2189,-0.2186,-0.2199,-0.2198,-0.2197,-0.2196,0,0,-0.1727,-0.1814,-0.1821,-0.1853,-0.1923,-0.195,-0.2012,-0.206,-0.2096,-0.2157,-0.2191,-0.2231,-0.2244,-0.2248,-0.2255,-0.2259,-0.2264,-0.2251,-0.2249,-0.2221,-0.2239,-0.2092,-0.2075,-0.2273,-0.2273,-0.2273,-0.2212,0,-0.1724,-0.1778,-0.1823,-0.1885,-0.1918,-0.1982,-0.2032,-0.2088,-0.214,-0.2189,-0.2213,-0.2251,-0.2257,-0.2278,-0.2283,-0.2269,-0.2261,-0.228,-0.2215,-0.2213,-0.2076,-0.2068,-0.2273,-0.221,-0.2209,-0.2209,-0.2209,0,-0.1703,-0.1749,-0.1809,-0.19,-0.192,-0.1968,-0.2052,-0.2101,-0.2171,-0.2211,-0.2252,-0.2273,-0.2293,-0.2294,-0.2277,-0.2294,-0.2267,-0.2251,-0.2249,-0.2085,-0.2061,-0.2173,-0.2204,-0.2204,-0.2204,-0.2205,-0.2205,0,-0.1641,-0.1732,-0.1783,-0.1816,-0.1924,-0.1968,-0.2026,-0.2108,-0.215,-0.2223,-0.2255,-0.2285,-0.2302,-0.2285,-0.226,-0.2276,-0.2223,-0.2235,-0.2071,-0.206,-0.2188,-0.2186,-0.2204,-0.2204,-0.2204,-0.2204,-0.2205,0,-0.1599,-0.1643,-0.1767,-0.1795,-0.1859,-0.1947,-0.2013,-0.2076,-0.2157,-0.2187,-0.226,-0.2268,-0.2304,-0.2284,-0.2256,-0.2139,-0.2214,-0.2054,-0.2028,-0.2214,-0.2215,-0.2186,-0.2185,-0.2202,-0.2203,-0.2203,-0.2203,0,-0.1515,-0.1599,-0.1664,-0.1791,-0.1832,-0.1878,-0.1998,-0.2038,-0.2131,-0.2171,-0.2193,-0.2257,-0.2219,-0.2219,-0.2181,-0.2109,-0.2031,-0.1971,-0.2152,-0.2142,-0.1875,-0.1878,-0.1773,-0.1767,-0.1763,-0.1758,-0.1755,0,-0.1473,-0.1502,-0.1641,-0.1682,-0.1745,-0.1832,-0.1885,-0.2005,-0.2041,-0.2135,-0.2132,-0.2144,-0.2159,-0.1968,-0.2001,-0.1906,-0.1887,-0.1839,-0.1866,-0.1842,-0.1829,-0.1839,-0.1848,-0.1747,-0.1746,-0.1744,-0.1743,0,-0.1387,-0.1452,-0.1507,-0.1594,-0.1665,-0.1725,-0.1811,-0.1821,-0.1938,-0.2047,-0.1994,-0.1953,-0.1901,-0.1853,-0.1786,-0.1732,-0.1869,-0.1788,-0.1798,-0.1823,-0.1809,-0.1803,-0.1818,-0.1726,-0.1728,-0.173,-0.1731,0,-0.1319,-0.1338,-0.142,-0.1476,-0.1561,-0.1581,-0.1646,-0.1676,-0.1719,-0.1834,-0.1807,-0.1816,-0.1876,-0.176,-0.1703,-0.1628,-0.1607,-0.1561,-0.1583,-0.1603,-0.1574,-0.1534,-0.1321,0,0,0,0,0,-0.1241,-0.1247,-0.1295,-0.1348,-0.1425,-0.1464,-0.1577,-0.1646,-0.1764,-0.1674,-0.1733,-0.1673,-0.1582,-0.1596,-0.1476,-0.1626,-0.1617,-0.1482,-0.1579,-0.1631,-0.1651,-0.1633,0,0,0,0,0,0,-0.1189,-0.1229,-0.1246,-0.1218,-0.1225,-0.1287,-0.1345,-0.1431,-0.1394,-0.1516,-0.1468,-0.1561,-0.1492,-0.1601,-0.1433,-0.1435,-0.146,-0.1505,-0.15,-0.162,-0.1638,-0.1654,-0.1643,0,0,0,0,0]},{"header":{"parameterUnit":"m.s-1","parameterCategory":2,"la1":30.2991,"la2":30.254,"lo1":-89.0895,"lo2":-89.0444,"dy":0.0017,"dx":0.0017,"nx":28,"ny":28,"refTime":"2024-03-30T09:00:00:Z","depth":"4","parameterNumber":3,"parameterNumberName":"V-component_of_CURRENTS"},"data":[0,0,0,0,0,0,0,0,0,0,0,0,0,0,0,0,0,0,0,0,0,0,0,0,0,0,0,0,0,0,0,0,0,0,0,0,0,0,0,0,0,0,0,0,0,0,0,0,0,0,0,0,0,0,0,0,0,0,-0.0312,-0.0311,0,-0.0281,-0.028,-0.028,-0.0259,-0.0259,-0.0258,-0.0258,-0.0185,-0.0183,-0.0181,0,0,0,0,0,0,0,0,0,0,0,0,0,-0.0316,-0.0316,-0.0312,-0.0311,-0.0311,-0.0281,-0.028,-0.028,-0.0259,-0.0259,-0.0258,-0.0258,-0.0185,-0.0183,-0.0181,0,0,0,0,0,0,0,0,0,0,0,0,0,-0.0302,-0.0316,-0.0312,-0.0297,-0.0295,-0.0281,-0.028,-0.028,-0.0259,-0.0259,-0.0258,-0.0258,-0.0186,-0.0184,-0.0181,-0.0169,0,0,-0.0173,-0.0171,0,0,0,0,0,0,0,0,-0.0303,-0.0302,-0.0299,-0.0298,-0.0296,-0.0273,-0.0255,-0.0241,-0.0259,-0.0273,-0.0258,-0.0258,-0.0211,-0.0206,-0.0201,-0.0166,-0.0162,-0.0172,-0.0171,-0.017,-0.0169,0,0,0,0,0,0,0,-0.0304,-0.0303,-0.03,-0.0299,-0.0297,-0.0279,-0.0277,-0.0252,-0.0243,-0.0271,-0.027,-0.0266,-0.0209,-0.0204,-0.0199,-0.0161,-0.0172,-0.017,-0.0168,-0.0167,-0.012,-0.0121,0,0,0,0,0,0,-0.031,-0.0304,-0.03,-0.0299,-0.0299,-0.0279,-0.0277,-0.0281,-0.0244,-0.0238,-0.0266,-0.0265,-0.0209,-0.0202,-0.0197,-0.0178,-0.017,-0.0167,-0.0165,-0.012,-0.012,-0.0121,0,0,0,0,0,0,-0.0311,-0.031,-0.0302,-0.03,-0.0298,-0.0279,-0.0284,-0.028,-0.0277,-0.024,-0.0234,-0.0267,-0.0208,-0.02,-0.0181,-0.0175,-0.0166,-0.0163,-0.012,-0.012,-0.0121,-0.0141,0,0,0,0,0,0,-0.0311,-0.0311,-0.0317,-0.0301,-0.0298,-0.0299,-0.0284,-0.028,-0.0275,-0.0273,-0.0239,-0.0231,-0.0207,-0.0185,-0.0178,-0.0171,-0.0161,-0.0119,-0.012,-0.012,-0.014,-0.0143,-0.0145,0,0,0,0,0,-0.0311,-0.0321,-0.0317,-0.0317,-0.0307,-0.0299,-0.0297,-0.0282,-0.0275,-0.0278,-0.0255,-0.0233,-0.0184,-0.0183,-0.0175,-0.0167,-0.0119,-0.012,-0.012,-0.0139,-0.0142,-0.0145,0,0,0,0,0,0,-0.0325,-0.032,-0.0315,-0.0323,-0.0314,-0.0296,-0.0297,-0.0286,-0.0271,-0.027,-0.0235,-0.0227,-0.0211,-0.0189,-0.0189,-0.0158,-0.0148,-0.0148,-0.0166,-0.0168,-0.017,-0.0169,-0.0159,0,0,0,0,0,-0.0331,-0.034,-0.0327,-0.0335,-0.0332,-0.0315,-0.0311,-0.0302,-0.0286,-0.028,-0.0255,-0.023,-0.0208,-0.0189,-0.0172,-0.0149,-0.0113,-0.014,-0.0143,-0.0144,-0.014,-0.0077,-0.0073,-0.0124,-0.0124,-0.0124,0,0,-0.0339,-0.0337,-0.0342,-0.0338,-0.033,-0.0332,-0.0312,-0.0311,-0.0308,-0.0273,-0.0263,-0.024,-0.0207,-0.0188,-0.0177,-0.0166,-0.0114,-0.0145,-0.0147,-0.0141,-0.0078,-0.0072,-0.0068,-0.0124,-0.0124,-0.0124,0,0,-0.0361,-0.0357,-0.0372,-0.0368,-0.0361,-0.0349,-0.035,-0.0335,-0.0324,-0.0313,-0.0287,-0.0257,-0.0231,-0.0195,-0.0176,-0.0178,-0.0135,-0.018,-0.0177,-0.0117,-0.0111,-0.0106,-0.0061,-0.0052,-0.0171,-0.0171,-0.0171,0,-0.0372,-0.0388,-0.0374,-0.0386,-0.0384,-0.0359,-0.037,-0.0355,-0.0335,-0.0319,-0.0317,-0.026,-0.0231,-0.0186,-0.0188,-0.0179,-0.0147,-0.0167,-0.0117,-0.0111,-0.0106,-0.0061,-0.005,-0.0173,-0.0172,-0.0172,-0.0172,0,-0.0404,-0.0416,-0.0424,-0.043,-0.0424,-0.0431,-0.0407,-0.0397,-0.038,-0.0356,-0.0319,-0.0276,-0.0237,-0.0224,-0.0205,-0.0152,-0.0144,-0.0133,-0.0107,-0.0101,-0.0055,-0.0043,-0.0174,-0.0174,-0.0173,-0.0173,0,0,-0.0434,-0.0447,-0.045,-0.0459,-0.0449,-0.0448,-0.0438,-0.0415,-0.0401,-0.0368,-0.0339,-0.029,-0.0257,-0.0233,-0.0197,-0.0139,-0.0072,-0.0121,-0.0117,-0.007,0.0052,0.0032,0.0043,-0.0051,-0.0049,-0.0048,0.0066,0,-0.0465,-0.0502,-0.0492,-0.0514,-0.0527,-0.0497,-0.0488,-0.0459,-0.0427,-0.0391,-0.0323,-0.029,-0.0262,-0.0241,-0.0178,-0.0104,-0.0042,-0.0104,0.0034,0.0038,0.0026,0.0055,-0.0041,0.0075,0.0078,0.008,0.0081,0,-0.05,-0.052,-0.0555,-0.0557,-0.0558,-0.0565,-0.0538,-0.0526,-0.046,-0.0431,-0.037,-0.032,-0.0233,-0.0215,-0.0065,-0.0109,-0.0031,0.0032,0.0038,0.0037,0.004,0.007,0.0102,0.0101,0.0099,0.0098,0.0096,0,-0.0532,-0.0558,-0.0589,-0.0593,-0.0592,-0.0597,-0.059,-0.0542,-0.0525,-0.0454,-0.0427,-0.0322,-0.0267,-0.0155,-0.0032,-0.0044,0.0133,0.0136,0.0196,0.0195,0.0188,0.0182,0.0252,0.0252,0.0252,0.0252,0.0251,0,-0.0566,-0.059,-0.0613,-0.0632,-0.066,-0.0639,-0.0647,-0.062,-0.057,-0.0539,-0.0454,-0.04,-0.0248,-0.0134,-0.0026,0.0117,0.0142,0.0206,0.023,0.0174,0.0164,0.0196,0.0188,0.0256,0.0255,0.0254,0.0253,0,-0.0594,-0.0612,-0.0651,-0.0671,-0.0683,-0.0703,-0.0703,-0.0696,-0.0646,-0.0601,-0.0579,-0.0444,-0.0294,-0.0146,0.0049,0.0121,0.026,0.0306,0.023,0.0245,0.028,0.027,0.0387,0.0388,0.0388,0.0388,0.0389,0,-0.061,-0.0637,-0.069,-0.0724,-0.0742,-0.0769,-0.0783,-0.0746,-0.0726,-0.0623,-0.0595,-0.0447,-0.0345,-0.0081,0.0063,0.0271,0.0294,0.0357,0.0327,0.0287,0.0298,0.0287,0.0276,0.0389,0.0389,0.0389,0.0389,0,-0.0637,-0.0663,-0.0697,-0.0773,-0.0811,-0.0839,-0.0849,-0.0836,-0.0769,-0.0727,-0.0582,-0.0437,-0.0265,-0.0072,0.0088,0.0232,0.0309,0.0361,0.0361,0.0333,0.029,0.0299,0.0288,0.0391,0.039,0.039,0.039,0,-0.0655,-0.0691,-0.0747,-0.0804,-0.0861,-0.0886,-0.0888,-0.0837,-0.08,-0.0671,-0.0623,-0.043,-0.0306,-0.009,0.0056,0.0194,0.0225,0.0256,0.0262,0.0262,0.0181,0.0106,0.0182,0,0,0,0,0,-0.0664,-0.0708,-0.0772,-0.0833,-0.089,-0.0915,-0.0916,-0.0897,-0.0831,-0.073,-0.0668,-0.05,-0.0252,-0.0139,-0.0002,0.0035,0.0221,0.0196,0.0252,0.0397,0.0396,0.0319,0,0,0,0,0,0,-0.0673,-0.0737,-0.0771,-0.0841,-0.0886,-0.0933,-0.0934,-0.0892,-0.0815,-0.073,-0.059,-0.0489,-0.0247,-0.0331,-0.0005,0.0037,0.0086,0.0322,0.0324,0.0398,0.0396,0.0395,0.0316,0,0,0,0,0]}]]